Weather Roundup
Issued by NWS

Home | Current Version | Previous Version | Graphics & Text | Print | Product List | Glossary Off
Versions: 1 2 3 4 5 6 7 8 9 10 11 12 13 14 15 16 17 18 19 20 21 22 23 24 25 26 27 28 29 30 31 32 33 34 35 36 37 38 39 40 41 42 43 44 45 46 47 48 49 50

000
NZUS93 KARX 270810
HRRWXR

CURRENT HOURLY OBSERVATIONS ACROSS
MUCH OF THE UPPER MISSISSIPPI VALLEY
NATIONAL WEATHER SERVICE LA CROSSE WI
200 AM CST FRI FEB 27 2015


...SOUTHEAST MINNESOTA...


CITY           SKY/WX    TMP DP  RH WIND       PRES   REMARKS
ROCHESTER      CLEAR    -12 -16  82 W10       30.45S WCI -31
ROCHESTER/MAYO FAIR      -4  -9  78 W6        30.47S WCI -17
WINONA         CLEAR     -8 -13  77 CALM      30.52S
AUSTIN         CLEAR     -8 -11  84 NW7       30.47S WCI -22
ALBERT LEA     CLEAR     -9 -15  77 W3        30.48R
DODGE CENTER   PTCLDY   -11 -17  77 W7        30.45S WCI -26
PRESTON        CLEAR    -10 -15  80 NW6       30.46S WCI -24
OWATONNA       CLEAR    -15 -20  76 SW5       30.49R WCI -27
FARIBAULT      FAIR      -9 -15  77 CALM      30.50R
$$

...ELSEWHERE IN MINNESOTA...


CITY           SKY/WX    TMP DP  RH WIND       PRES   REMARKS
MINNEAPOLIS    CLEAR      0  -9  65 W7        30.51R WCI -13
INTNL FALLS    PTCLDY    -9 -14  78 W5        30.36S WCI -20
DULUTH         CLEAR     -6 -15  65 W9        30.35R WCI -23
RED WING       CLEAR     -9 -17  70 W3        30.50R
REDWOOD FALLS  CLEAR     -9 -14  78 W7        30.53S WCI -24
MANKATO        CLEAR     -8 -15  71 W5        30.51R WCI -19
FAIRMONT       CLEAR     -8 -13  77 NW8       30.49R WCI -23
$$

...SOUTHWEST WISCONSIN...


CITY           SKY/WX    TMP DP  RH WIND       PRES   REMARKS
LA CROSSE      CLEAR     -5 -11  75 CALM      30.51R
PRAIRIE DU CHI CLEAR     -8 -13  75 W3        30.53R
BOSCOBEL       CLEAR    -10 -16  74 CALM      30.52R
LONE ROCK      CLEAR     -7 -12  79 W6        30.49R WCI -20
PLATTEVILLE    CLEAR     -7 -12  77 W5        30.47R WCI -18
FORT MC COY    CLEAR    -15 -21  77 CALM      30.48S
CAMP DOUGLAS   CLEAR     -4 -10  75 W5        30.45R WCI -15
VIROQUA        FAIR      -5 -10  80 W5        30.43R WCI -16
WIS DELLS      CLEAR     -4 -12  68 CALM      30.44R
$$

...ELSEWHERE IN WISCONSIN...


CITY           SKY/WX    TMP DP  RH WIND       PRES   REMARKS
MILWAUKEE      CLEAR      4  -7  60 W7        30.44R WCI  -8
MADISON        CLEAR     -1 -10  65 CALM      30.45R
GREEN BAY      CLEAR      0  -8  69 W7        30.43R WCI -13
EAU CLAIRE     CLEAR     -4 -12  68 CALM      30.46R
BLACK RVR FLS  FAIR     -18 -25  71 CALM      30.46S
MEDFORD        CLEAR     -7 -13  74 W5        30.36R WCI -18
WAUSAU         CLEAR     -5 -13  68 NW5       30.38R WCI -16
WIS RAPIDS     CLEAR     -8 -14  74 CALM      30.44R
MARSHFIELD     CLEAR     -5 -14  65 NW6       30.39S WCI -18
RICE LAKE      CLEAR     -8 -15  74 W5        30.44S WCI -20
$$

...NORTHEAST IOWA...


CITY           SKY/WX    TMP DP  RH WIND       PRES   REMARKS
DECORAH        CLEAR     -9 -15  77 CALM      30.47S
MASON CITY     CLEAR    -13 -17  82 NW9       30.51R WCI -31
CHARLES CITY   PTCLDY   -15 -22  70 NW5       30.50S WCI -27
OELWEIN        PTCLDY   -17 -22  76 NW7       30.50S WCI -33
$$

...ELSEWHERE IN IOWA...


CITY           SKY/WX    TMP DP  RH WIND       PRES   REMARKS
DES MOINES     CLEAR     -4 -10  75 W6        30.57R WCI -16
IOWA CITY      CLEAR     -6 -11  79 NW10      30.57R WCI -24
FORT DODGE     FAIR     -11 -20  64 CALM      30.54S
$$

...NORTHERN ILLINOIS...


CITY           SKY/WX    TMP DP  RH WIND       PRES   REMARKS
CHICAGO-OHARE  CLEAR      0  -8  69 NW8       30.44R WCI -14
CHICAGO-MIDWAY PTCLDY     6  -4  63 NW6       30.45R WCI  -4
MOLINE         FAIR      -7 -13  75 W7        30.54R WCI -21
ROCKFORD       CLEAR     -9 -16  71 CALM      30.49R
PEORIA         CLEAR     -1  -9  68 NW3       30.53R
$$

NOTE: "FAIR" INDICATES FEW OR NO CLOUDS BELOW 12,000 FEET WITH NO
SIGNIFICANT WEATHER AND/OR OBSTRUCTIONS TO VISIBILITY. WIND
SPEEDS ARE IN MILES-PER-HOUR.



USA.gov is the U.S. government's official web portal to all federal, state and local government web resources and services.